,,PA_Meas_PMT16A,,PR_Meas_QMR101_102,,RH_Meas_QMH101,,SR_Meas_QMS101,,TA_Meas_QMH101,,GenWind,,GenWind,
time,status,PA,status,PR,status,RH,status,SR,status,TA,status,DirAvg,status,SpdAvg,
2012-09-04, 00:00:05,VALID,916.689,VALID,0,VALID,93.6155,VALID,0.107441,VALID,21.8876,VALID,84,VALID,0,
2012-09-04, 00:01:05,VALID,916.679,VALID,0,VALID,93.5469,VALID,0.107441,VALID,21.9087,VALID,84,VALID,0,
2012-09-04, 00:02:05,VALID,916.702,VALID,0,VALID,93.5012,VALID,0,VALID,21.9071,VALID,84,VALID,0,
2012-09-04, 00:03:05,VALID,916.696,VALID,0,VALID,93.2268,VALID,0,VALID,21.8876,VALID,84,VALID,0,
2012-09-04, 00:04:05,VALID,916.696,VALID,0,VALID,93.0667,VALID,0.107441,VALID,21.8876,VALID,84,VALID,0,
2012-09-04, 00:05:05,VALID,916.718,VALID,0,VALID,93.0438,VALID,0,VALID,21.8681,VALID,84,VALID,0,
2012-09-04, 00:06:05,VALID,916.722,VALID,0,VALID,93.0972,VALID,0.107441,VALID,21.829,VALID,84,VALID,0,
2012-09-04, 00:07:05,VALID,916.759,VALID,0,VALID,93.12,VALID,0,VALID,21.8112,VALID,84,VALID,0,
2012-09-04, 00:08:05,VALID,916.79,VALID,0,VALID,93.303,VALID,0.107441,VALID,21.7705,VALID,84,VALID,0,
2012-09-04, 00:09:05,VALID,916.787,VALID,0,VALID,93.5317,VALID,0,VALID,21.751,VALID,84,VALID,0,
2012-09-04, 00:10:05,VALID,916.79,VALID,0,VALID,93.6994,VALID,0.107441,VALID,21.7315,VALID,84,VALID,0,
2012-09-04, 00:11:05,VALID,916.793,VALID,0,VALID,93.8824,VALID,0.107441,VALID,21.7315,VALID,84,VALID,0,
2012-09-04, 00:12:05,VALID,916.801,VALID,0,VALID,93.9129,VALID,0,VALID,21.751,VALID,84,VALID,0,
2012-09-04, 00:13:05,VALID,916.802,VALID,0,VALID,94.012,VALID,0.107441,VALID,21.751,VALID,84,VALID,0,
2012-09-04, 00:14:05,VALID,916.793,VALID,0,VALID,94.0501,VALID,0.107441,VALID,21.8112,VALID,84,VALID,0,
2012-09-04, 00:15:05,VALID,916.815,VALID,0,VALID,93.9738,VALID,0.107441,VALID,21.79,VALID,84,VALID,0,
2012-09-04, 00:16:05,VALID,916.814,VALID,0,VALID,93.951,VALID,0.107441,VALID,21.8307,VALID,84,VALID,0,
2012-09-04, 00:17:05,VALID,916.786,VALID,0,VALID,93.951,VALID,0,VALID,21.79,VALID,84,VALID,0,
2012-09-04, 00:18:05,VALID,916.796,VALID,0,VALID,94.0043,VALID,0,VALID,21.8307,VALID,84,VALID,0,
2012-09-04, 00:19:05,VALID,916.773,VALID,0,VALID,94.012,VALID,0,VALID,21.8502,VALID,84,VALID,0,
2012-09-04, 00:20:05,VALID,916.788,VALID,0,VALID,94.012,VALID,0,VALID,21.829,VALID,84,VALID,0,
2012-09-04, 00:21:05,VALID,916.789,VALID,0,VALID,94.0577,VALID,0,VALID,21.829,VALID,84,VALID,0,
2012-09-04, 00:22:05,VALID,916.773,VALID,0,VALID,94.0653,VALID,0.107441,VALID,21.8485,VALID,84,VALID,0,
2012-09-04, 00:23:05,VALID,916.781,VALID,0,VALID,94.0196,VALID,0.107441,VALID,21.8681,VALID,84,VALID,0,
2012-09-04, 00:24:05,VALID,916.767,VALID,0,VALID,93.9738,VALID,0.107441,VALID,21.8681,VALID,84,VALID,0,
2012-09-04, 00:25:05,VALID,916.737,VALID,0,VALID,93.9586,VALID,0.107441,VALID,21.8876,VALID,84,VALID,0,
2012-09-04, 00:26:05,VALID,916.727,VALID,0,VALID,93.8976,VALID,0.107441,VALID,21.9071,VALID,84,VALID,0,
2012-09-04, 00:27:05,VALID,916.741,VALID,0,VALID,93.8824,VALID,0.107441,VALID,21.9461,VALID,84,VALID,0,
2012-09-04, 00:28:05,VALID,916.744,VALID,0,VALID,93.7833,VALID,0.107441,VALID,21.9656,VALID,84,VALID,0,
2012-09-04, 00:29:05,VALID,916.751,VALID,0,VALID,93.5698,VALID,0.107441,VALID,21.9461,VALID,84,VALID,0,
2012-09-04, 00:30:05,VALID,916.746,VALID,0,VALID,93.6079,VALID,0,VALID,21.9461,VALID,84,VALID,0,
2012-09-04, 00:31:05,VALID,916.747,VALID,0,VALID,93.6384,VALID,0.107441,VALID,21.9851,VALID,84,VALID,0,
2012-09-04, 00:32:05,VALID,916.737,VALID,0,VALID,93.425,VALID,0,VALID,22.0242,VALID,84,VALID,0,
2012-09-04, 00:33:05,VALID,916.748,VALID,0,VALID,93.2268,VALID,0.107441,VALID,22.0047,VALID,84,VALID,0,
2012-09-04, 00:34:05,VALID,916.714,VALID,0,VALID,93.2039,VALID,0,VALID,22.0063,VALID,81,VALID,0,
2012-09-04, 00:35:05,VALID,916.738,VALID,0,VALID,93.1276,VALID,0,VALID,22.0063,VALID,76,VALID,0,
2012-09-04, 00:36:05,VALID,916.68,VALID,0,VALID,93.1505,VALID,0,VALID,21.9868,VALID,76,VALID,0,
2012-09-04, 00:37:05,VALID,916.672,VALID,0,VALID,93.1048,VALID,0,VALID,21.9478,VALID,76,VALID,0,
2012-09-04, 00:38:05,VALID,916.598,VALID,0,VALID,93.12,VALID,0,VALID,21.9283,VALID,76,VALID,0,
2012-09-04, 00:39:05,VALID,916.633,VALID,0,VALID,93.2877,VALID,0.107441,VALID,21.9087,VALID,76,VALID,0,
2012-09-04, 00:40:05,VALID,916.653,VALID,0,VALID,93.3716,VALID,0,VALID,21.8697,VALID,76,VALID,0,
2012-09-04, 00:41:05,VALID,916.658,VALID,0,VALID,93.5393,VALID,0,VALID,21.8697,VALID,76,VALID,0,
2012-09-04, 00:42:05,VALID,916.606,VALID,0,VALID,93.5393,VALID,0.107441,VALID,21.8697,VALID,76,VALID,0,
2012-09-04, 00:43:05,VALID,916.6,VALID,0,VALID,93.5012,VALID,0,VALID,21.8485,VALID,76,VALID,0,
2012-09-04, 00:44:05,VALID,916.594,VALID,0,VALID,93.6232,VALID,0,VALID,21.8502,VALID,76,VALID,0,
2012-09-04, 00:45:05,VALID,916.583,VALID,0,VALID,93.707,VALID,0,VALID,21.8697,VALID,76,VALID,0,
2012-09-04, 00:46:05,VALID,916.596,VALID,0,VALID,93.7299,VALID,0,VALID,21.8697,VALID,76,VALID,0,
2012-09-04, 00:47:05,VALID,916.595,VALID,0,VALID,93.7147,VALID,0,VALID,21.8502,VALID,76,VALID,0,
2012-09-04, 00:48:05,VALID,916.567,VALID,0,VALID,93.6994,VALID,0,VALID,21.8307,VALID,76,VALID,0,
2012-09-04, 00:49:05,VALID,916.592,VALID,0,VALID,93.6842,VALID,0,VALID,21.8128,VALID,76,VALID,0,
2012-09-04, 00:50:05,VALID,916.611,VALID,0,VALID,93.8519,VALID,0,VALID,21.8128,VALID,76,VALID,0,
2012-09-04, 00:51:05,VALID,916.623,VALID,0,VALID,93.9967,VALID,0,VALID,21.8519,VALID,76,VALID,0,
2012-09-04, 00:52:05,VALID,916.629,VALID,0,VALID,93.9434,VALID,0,VALID,21.8519,VALID,76,VALID,0,
2012-09-04, 00:53:05,VALID,916.608,VALID,0,VALID,93.6765,VALID,0,VALID,21.8714,VALID,76,VALID,0,
2012-09-04, 00:54:05,VALID,916.591,VALID,0,VALID,93.6079,VALID,0,VALID,21.8714,VALID,76,VALID,0,
2012-09-04, 00:55:05,VALID,916.588,VALID,0,VALID,93.4859,VALID,0,VALID,21.8714,VALID,47,VALID,0,
2012-09-04, 00:56:05,VALID,916.532,VALID,0,VALID,93.3792,VALID,0,VALID,21.8323,VALID,33,VALID,0,
2012-09-04, 00:57:05,VALID,916.523,VALID,0,VALID,93.4326,VALID,0,VALID,21.7917,VALID,33,VALID,0,
2012-09-04, 00:58:05,VALID,916.557,VALID,0,VALID,93.5774,VALID,0,VALID,21.7933,VALID,354,VALID,0,
2012-09-04, 00:59:05,VALID,916.558,VALID,0,VALID,93.6613,VALID,0,VALID,21.7933,VALID,352,VALID,0,
2012-09-04, 01:00:05,VALID,916.558,VALID,0,VALID,93.7604,VALID,0,VALID,21.7543,VALID,352,VALID,0,
2012-09-04, 01:01:05,VALID,916.544,VALID,0,VALID,93.8976,VALID,0,VALID,21.7738,VALID,352,VALID,0,
2012-09-04, 01:02:05,VALID,916.569,VALID,0,VALID,93.9967,VALID,0,VALID,21.7933,VALID,352,VALID,0,
2012-09-04, 01:03:05,VALID,916.593,VALID,0,VALID,94.0501,VALID,0,VALID,21.7933,VALID,352,VALID,0,
2012-09-04, 01:04:05,VALID,916.573,VALID,0,VALID,94.1339,VALID,0,VALID,21.7917,VALID,352,VALID,0,
2012-09-04, 01:05:05,VALID,916.546,VALID,0,VALID,94.1949,VALID,0,VALID,21.7917,VALID,352,VALID,0,
2012-09-04, 01:06:05,VALID,916.553,VALID,0,VALID,94.2712,VALID,0,VALID,21.8307,VALID,352,VALID,0,
2012-09-04, 01:07:05,VALID,916.525,VALID,0,VALID,94.2788,VALID,0,VALID,21.8502,VALID,352,VALID,0,
2012-09-04, 01:08:05,VALID,916.474,VALID,0,VALID,94.2788,VALID,0,VALID,21.8502,VALID,352,VALID,0,
2012-09-04, 01:09:05,VALID,916.48,VALID,0,VALID,94.2712,VALID,0,VALID,21.8697,VALID,352,VALID,0,
2012-09-04, 01:10:05,VALID,916.458,VALID,0,VALID,94.2483,VALID,0,VALID,21.8697,VALID,352,VALID,0,
2012-09-04, 01:11:05,VALID,916.452,VALID,0,VALID,94.1187,VALID,0,VALID,21.8681,VALID,352,VALID,0,
2012-09-04, 01:12:05,VALID,916.459,VALID,0,VALID,93.9967,VALID,0,VALID,21.8502,VALID,352,VALID,0,
2012-09-04, 01:13:05,VALID,916.428,VALID,0,VALID,94.0348,VALID,0,VALID,21.8112,VALID,352,VALID,0,
2012-09-04, 01:14:04,VALID,916.438,VALID,0,VALID,94.1492,VALID,0,VALID,21.7917,VALID,352,VALID,0,
2012-09-04, 01:15:04,VALID,916.408,VALID,0,VALID,94.2788,VALID,0,VALID,21.7721,VALID,352,VALID,0,
2012-09-04, 01:16:04,VALID,916.374,VALID,0,VALID,94.3855,VALID,0,VALID,21.7526,VALID,352,VALID,0,
2012-09-04, 01:17:04,VALID,916.355,VALID,0,VALID,94.5075,VALID,0,VALID,21.7526,VALID,352,VALID,0,
2012-09-04, 01:18:04,VALID,916.357,VALID,0,VALID,94.5837,VALID,0,VALID,21.7331,VALID,352,VALID,0,
2012-09-04, 01:19:04,VALID,916.329,VALID,0,VALID,94.6218,VALID,0,VALID,21.7526,VALID,352,VALID,0,
2012-09-04, 01:20:04,VALID,916.317,VALID,0,VALID,94.5837,VALID,0,VALID,21.7526,VALID,352,VALID,0,
2012-09-04, 01:21:04,VALID,916.3,VALID,0,VALID,94.6295,VALID,0,VALID,21.7526,VALID,352,VALID,0,
2012-09-04, 01:22:04,VALID,916.252,VALID,0,VALID,94.599,VALID,0,VALID,21.7526,VALID,352,VALID,0,
2012-09-04, 01:23:04,VALID,916.269,VALID,0,VALID,94.5532,VALID,0,VALID,21.7331,VALID,352,VALID,0,
2012-09-04, 01:24:04,VALID,916.252,VALID,0,VALID,94.5227,VALID,0,VALID,21.7331,VALID,352,VALID,0,
2012-09-04, 01:25:04,VALID,916.232,VALID,0,VALID,94.538,VALID,0,VALID,21.7331,VALID,352,VALID,0,
2012-09-04, 01:26:04,VALID,916.22,VALID,0,VALID,94.5151,VALID,0,VALID,21.7136,VALID,352,VALID,0,
2012-09-04, 01:27:04,VALID,916.224,VALID,0,VALID,94.6142,VALID,0,VALID,21.7136,VALID,352,VALID,0,
2012-09-04, 01:28:04,VALID,916.2,VALID,0,VALID,94.6066,VALID,0,VALID,21.6729,VALID,352,VALID,0,
2012-09-04, 01:29:04,VALID,916.173,VALID,0,VALID,94.6218,VALID,0,VALID,21.6941,VALID,352,VALID,0,
2012-09-04, 01:30:04,VALID,916.159,VALID,0,VALID,94.599,VALID,0,VALID,21.6941,VALID,352,VALID,0,
2012-09-04, 01:31:04,VALID,916.166,VALID,0,VALID,94.6523,VALID,0,VALID,21.6941,VALID,352,VALID,0,
2012-09-04, 01:32:04,VALID,916.145,VALID,0,VALID,94.6676,VALID,0,VALID,21.6941,VALID,352,VALID,0,
2012-09-04, 01:33:04,VALID,916.117,VALID,0,VALID,94.6752,VALID,0,VALID,21.6746,VALID,352,VALID,0,
2012-09-04, 01:34:04,VALID,916.155,VALID,0,VALID,94.7514,VALID,0,VALID,21.6941,VALID,168,VALID,0,
2012-09-04, 01:35:04,VALID,916.177,VALID,0,VALID,94.7591,VALID,0,VALID,21.6746,VALID,168,VALID,0,
2012-09-04, 01:36:04,VALID,916.164,VALID,0,VALID,94.8048,VALID,0,VALID,21.6746,VALID,168,VALID,0,
2012-09-04, 01:37:04,VALID,916.179,VALID,0,VALID,94.9039,VALID,0,VALID,21.6941,VALID,168,VALID,0,
2012-09-04, 01:38:04,VALID,916.176,VALID,0,VALID,94.8963,VALID,0,VALID,21.6941,VALID,168,VALID,0,
2012-09-04, 01:39:04,VALID,916.166,VALID,0,VALID,94.7743,VALID,0,VALID,21.6746,VALID,168,VALID,0,
2012-09-04, 01:40:04,VALID,916.176,VALID,0,VALID,94.7819,VALID,0,VALID,21.6551,VALID,168,VALID,0,
2012-09-04, 01:41:04,VALID,916.163,VALID,0,VALID,94.8353,VALID,0.107441,VALID,21.6356,VALID,168,VALID,0,
2012-09-04, 01:42:04,VALID,916.166,VALID,0,VALID,94.8963,VALID,0,VALID,21.616,VALID,168,VALID,0,
2012-09-04, 01:43:04,VALID,916.118,VALID,0,VALID,94.9344,VALID,0,VALID,21.616,VALID,168,VALID,0,
2012-09-04, 01:44:04,VALID,916.117,VALID,0,VALID,94.9268,VALID,0,VALID,21.616,VALID,168,VALID,0,
2012-09-04, 01:45:04,VALID,916.15,VALID,0,VALID,94.9801,VALID,0,VALID,21.616,VALID,168,VALID,0,
2012-09-04, 01:46:04,VALID,916.127,VALID,0,VALID,95.0183,VALID,0,VALID,21.6356,VALID,168,VALID,0,
2012-09-04, 01:47:04,VALID,916.131,VALID,0,VALID,95.0259,VALID,0,VALID,21.6551,VALID,168,VALID,0,
2012-09-04, 01:48:04,VALID,916.113,VALID,0,VALID,94.9878,VALID,0,VALID,21.6941,VALID,168,VALID,0,
2012-09-04, 01:49:04,VALID,916.123,VALID,0,VALID,94.9573,VALID,0,VALID,21.6941,VALID,168,VALID,0,
2012-09-04, 01:50:04,VALID,916.096,VALID,0,VALID,94.9192,VALID,0,VALID,21.6941,VALID,168,VALID,0,
2012-09-04, 01:51:04,VALID,916.084,VALID,0,VALID,94.8505,VALID,0,VALID,21.7136,VALID,168,VALID,0,
2012-09-04, 01:52:04,VALID,916.127,VALID,0,VALID,94.8124,VALID,0,VALID,21.7136,VALID,168,VALID,0,
2012-09-04, 01:53:04,VALID,916.087,VALID,0,VALID,94.82,VALID,0,VALID,21.7136,VALID,168,VALID,0,
2012-09-04, 01:54:04,VALID,916.127,VALID,0,VALID,94.7514,VALID,0,VALID,21.7331,VALID,168,VALID,0,
2012-09-04, 01:55:04,VALID,916.14,VALID,0,VALID,94.7057,VALID,0,VALID,21.7331,VALID,168,VALID,0,
2012-09-04, 01:56:04,VALID,916.141,VALID,0,VALID,94.6447,VALID,0,VALID,21.7738,VALID,168,VALID,0,
2012-09-04, 01:57:04,VALID,916.167,VALID,0,VALID,94.6066,VALID,0,VALID,21.7917,VALID,168,VALID,0,
2012-09-04, 01:58:04,VALID,916.173,VALID,0,VALID,94.4465,VALID,0,VALID,21.7917,VALID,168,VALID,0,
2012-09-04, 01:59:04,VALID,916.142,VALID,0,VALID,94.294,VALID,0,VALID,21.8112,VALID,168,VALID,0,
2012-09-04, 02:00:04,VALID,916.154,VALID,0,VALID,94.2864,VALID,0,VALID,21.8307,VALID,168,VALID,0,
2012-09-04, 02:01:04,VALID,916.134,VALID,0,VALID,94.2407,VALID,0,VALID,21.8307,VALID,168,VALID,0,
2012-09-04, 02:02:04,VALID,916.131,VALID,0,VALID,94.2254,VALID,0,VALID,21.8502,VALID,168,VALID,0,
2012-09-04, 02:03:04,VALID,916.136,VALID,0,VALID,94.1873,VALID,0,VALID,21.8502,VALID,168,VALID,0,
2012-09-04, 02:04:04,VALID,916.159,VALID,0,VALID,94.2559,VALID,0,VALID,21.8697,VALID,168,VALID,0,
2012-09-04, 02:05:04,VALID,916.163,VALID,0,VALID,94.2559,VALID,0,VALID,21.8697,VALID,168,VALID,0,
2012-09-04, 02:06:04,VALID,916.163,VALID,0,VALID,94.1873,VALID,0,VALID,21.8697,VALID,168,VALID,0,
2012-09-04, 02:07:04,VALID,916.169,VALID,0,VALID,94.1111,VALID,0,VALID,21.8697,VALID,168,VALID,0,
2012-09-04, 02:08:04,VALID,916.197,VALID,0,VALID,94.073,VALID,0,VALID,21.8502,VALID,168,VALID,0,
2012-09-04, 02:09:04,VALID,916.185,VALID,0,VALID,94.0348,VALID,0,VALID,21.8519,VALID,168,VALID,0,
2012-09-04, 02:10:04,VALID,916.216,VALID,0,VALID,94.0806,VALID,0,VALID,21.8112,VALID,168,VALID,0,
2012-09-04, 02:11:04,VALID,916.148,VALID,0,VALID,94.1416,VALID,0,VALID,21.8112,VALID,168,VALID,0,
2012-09-04, 02:12:04,VALID,916.127,VALID,0,VALID,94.2102,VALID,0,VALID,21.7917,VALID,168,VALID,0,
2012-09-04, 02:13:04,VALID,916.124,VALID,0,VALID,94.2178,VALID,0,VALID,21.7721,VALID,168,VALID,0,
2012-09-04, 02:14:04,VALID,916.141,VALID,0,VALID,94.2635,VALID,0,VALID,21.7721,VALID,168,VALID,0,
2012-09-04, 02:15:04,VALID,916.094,VALID,0,VALID,94.3093,VALID,0,VALID,21.7917,VALID,168,VALID,0,
2012-09-04, 02:16:04,VALID,916.117,VALID,0,VALID,94.416,VALID,0,VALID,21.7917,VALID,168,VALID,0,
2012-09-04, 02:17:04,VALID,916.146,VALID,0,VALID,94.4465,VALID,0,VALID,21.8112,VALID,168,VALID,0,
2012-09-04, 02:18:04,VALID,916.136,VALID,0,VALID,94.3931,VALID,0,VALID,21.8112,VALID,168,VALID,0,
2012-09-04, 02:19:04,VALID,916.153,VALID,0,VALID,94.3398,VALID,0,VALID,21.79,VALID,168,VALID,0,
2012-09-04, 02:20:04,VALID,916.142,VALID,0,VALID,94.3931,VALID,0,VALID,21.8307,VALID,168,VALID,0,
2012-09-04, 02:21:04,VALID,916.162,VALID,0,VALID,94.3779,VALID,0,VALID,21.8502,VALID,168,VALID,0,
2012-09-04, 02:22:04,VALID,916.149,VALID,0,VALID,94.3321,VALID,0,VALID,21.829,VALID,168,VALID,0,
2012-09-04, 02:23:04,VALID,916.147,VALID,0,VALID,94.1949,VALID,0.107441,VALID,21.8307,VALID,168,VALID,0,
2012-09-04, 02:24:04,VALID,916.112,VALID,0,VALID,94.1263,VALID,0,VALID,21.8112,VALID,168,VALID,0,
2012-09-04, 02:25:04,VALID,916.095,VALID,0,VALID,94.1873,VALID,0,VALID,21.7917,VALID,168,VALID,0,
2012-09-04, 02:26:04,VALID,916.083,VALID,0,VALID,94.1949,VALID,0,VALID,21.8112,VALID,168,VALID,0,
2012-09-04, 02:27:04,VALID,916.066,VALID,0,VALID,94.1111,VALID,0,VALID,21.7721,VALID,168,VALID,0,
2012-09-04, 02:28:04,VALID,916.049,VALID,0,VALID,94.1416,VALID,0,VALID,21.7526,VALID,168,VALID,0,
2012-09-04, 02:29:04,VALID,916.007,VALID,0,VALID,94.294,VALID,0.107441,VALID,21.7331,VALID,168,VALID,0,
2012-09-04, 02:30:04,VALID,916.059,VALID,0,VALID,94.3017,VALID,0,VALID,21.6941,VALID,168,VALID,0,
2012-09-04, 02:31:04,VALID,916.031,VALID,0,VALID,94.3093,VALID,0.107441,VALID,21.6941,VALID,168,VALID,0,
2012-09-04, 02:32:04,VALID,916.036,VALID,0,VALID,94.3779,VALID,0,VALID,21.6746,VALID,168,VALID,0,
2012-09-04, 02:33:04,VALID,916.038,VALID,0,VALID,94.4541,VALID,0,VALID,21.6567,VALID,168,VALID,0,
2012-09-04, 02:34:04,VALID,916.006,VALID,0,VALID,94.4999,VALID,0,VALID,21.6356,VALID,168,VALID,0,
2012-09-04, 02:35:04,VALID,915.996,VALID,0,VALID,94.5913,VALID,0,VALID,21.6356,VALID,168,VALID,0,
2012-09-04, 02:36:04,VALID,915.995,VALID,0,VALID,94.5837,VALID,0,VALID,21.6551,VALID,168,VALID,0,
2012-09-04, 02:37:04,VALID,915.973,VALID,0,VALID,94.538,VALID,0,VALID,21.6356,VALID,168,VALID,0,
2012-09-04, 02:38:04,VALID,915.971,VALID,0,VALID,94.4999,VALID,0,VALID,21.6551,VALID,168,VALID,0,
2012-09-04, 02:39:04,VALID,915.966,VALID,0,VALID,94.3398,VALID,0,VALID,21.5965,VALID,168,VALID,0,
2012-09-04, 02:40:04,VALID,915.933,VALID,0,VALID,94.3626,VALID,0,VALID,21.538,VALID,118,VALID,0,
2012-09-04, 02:41:04,VALID,915.882,VALID,0,VALID,94.4617,VALID,0,VALID,21.4583,VALID,118,VALID,0,
2012-09-04, 02:42:04,VALID,915.862,VALID,0,VALID,94.6676,VALID,0,VALID,21.4209,VALID,118,VALID,0,
2012-09-04, 02:43:04,VALID,915.837,VALID,0,VALID,94.8048,VALID,0,VALID,21.4014,VALID,118,VALID,0,
2012-09-04, 02:44:04,VALID,915.832,VALID,0,VALID,94.9573,VALID,0,VALID,21.3624,VALID,118,VALID,0,
2012-09-04, 02:45:04,VALID,915.837,VALID,0,VALID,95.0945,VALID,0,VALID,21.3624,VALID,118,VALID,0,
2012-09-04, 02:46:04,VALID,915.819,VALID,0,VALID,95.2088,VALID,0,VALID,21.3429,VALID,118,VALID,0,
2012-09-04, 02:47:04,VALID,915.819,VALID,0,VALID,95.2317,VALID,0,VALID,21.3429,VALID,118,VALID,0,
2012-09-04, 02:48:04,VALID,915.78,VALID,0,VALID,95.2927,VALID,0,VALID,21.3234,VALID,118,VALID,0,
2012-09-04, 02:49:04,VALID,915.785,VALID,0,VALID,95.3308,VALID,0,VALID,21.325,VALID,118,VALID,0,
2012-09-04, 02:50:04,VALID,915.735,VALID,0,VALID,95.3994,VALID,0,VALID,21.3055,VALID,118,VALID,0,
2012-09-04, 02:51:04,VALID,915.707,VALID,0,VALID,95.468,VALID,0,VALID,21.2859,VALID,118,VALID,0,
2012-09-04, 02:52:04,VALID,915.688,VALID,0,VALID,95.5062,VALID,0,VALID,21.3055,VALID,118,VALID,0,
2012-09-04, 02:53:04,VALID,915.646,VALID,0,VALID,95.5062,VALID,0,VALID,21.2664,VALID,118,VALID,0,
2012-09-04, 02:54:04,VALID,915.674,VALID,0,VALID,95.5824,VALID,0,VALID,21.2664,VALID,118,VALID,0,
2012-09-04, 02:55:04,VALID,915.621,VALID,0,VALID,95.59,VALID,0,VALID,21.2664,VALID,118,VALID,0,
2012-09-04, 02:56:04,VALID,915.657,VALID,0,VALID,95.6281,VALID,0,VALID,21.2274,VALID,118,VALID,0,
2012-09-04, 02:57:04,VALID,915.676,VALID,0,VALID,95.6662,VALID,0,VALID,21.2274,VALID,117,VALID,0,
2012-09-04, 02:58:04,VALID,915.709,VALID,0,VALID,95.7196,VALID,0,VALID,21.229,VALID,117,VALID,0,
2012-09-04, 02:59:04,VALID,915.732,VALID,0,VALID,95.7958,VALID,0,VALID,21.2876,VALID,116,VALID,0,
2012-09-04, 03:00:04,VALID,915.728,VALID,0,VALID,95.8263,VALID,0,VALID,21.2664,VALID,116,VALID,0,
2012-09-04, 03:01:04,VALID,915.723,VALID,0,VALID,95.8721,VALID,0,VALID,21.2876,VALID,116,VALID,0,
2012-09-04, 03:02:04,VALID,915.725,VALID,0,VALID,95.8721,VALID,0,VALID,21.2859,VALID,116,VALID,0,
2012-09-04, 03:03:04,VALID,915.729,VALID,0,VALID,95.8797,VALID,0,VALID,21.2859,VALID,199,VALID,0,
2012-09-04, 03:04:04,VALID,915.761,VALID,0,VALID,95.895,VALID,0.107441,VALID,21.2843,VALID,198,VALID,0,
2012-09-04, 03:05:04,VALID,915.736,VALID,0,VALID,95.9178,VALID,0,VALID,21.2648,VALID,189,VALID,0,
2012-09-04, 03:06:04,VALID,915.766,VALID,0,VALID,95.9026,VALID,0,VALID,21.2843,VALID,194,VALID,0,
2012-09-04, 03:07:04,VALID,915.778,VALID,0,VALID,95.9331,VALID,0,VALID,21.2843,VALID,194,VALID,0,
2012-09-04, 03:08:04,VALID,915.792,VALID,0,VALID,95.9331,VALID,0,VALID,21.3038,VALID,194,VALID,0,
2012-09-04, 03:09:04,VALID,915.779,VALID,0,VALID,95.9331,VALID,0,VALID,21.3445,VALID,194,VALID,0,
2012-09-04, 03:10:04,VALID,915.78,VALID,0,VALID,95.9178,VALID,0,VALID,21.3234,VALID,194,VALID,0,
2012-09-04, 03:11:04,VALID,915.776,VALID,0,VALID,95.9178,VALID,0,VALID,21.3429,VALID,194,VALID,0,
2012-09-04, 03:12:04,VALID,915.744,VALID,0,VALID,95.8873,VALID,0,VALID,21.3624,VALID,194,VALID,0,
2012-09-04, 03:13:04,VALID,915.716,VALID,0,VALID,95.8721,VALID,0,VALID,21.3819,VALID,194,VALID,0,
2012-09-04, 03:14:04,VALID,915.721,VALID,0,VALID,95.8492,VALID,0,VALID,21.3819,VALID,194,VALID,0,
2012-09-04, 03:15:04,VALID,915.7,VALID,0,VALID,95.8111,VALID,0.107441,VALID,21.4014,VALID,194,VALID,0,
2012-09-04, 03:16:04,VALID,915.704,VALID,0,VALID,95.7425,VALID,0,VALID,21.4014,VALID,194,VALID,0,
2012-09-04, 03:17:04,VALID,915.691,VALID,0,VALID,95.6434,VALID,0,VALID,21.4209,VALID,194,VALID,0,
2012-09-04, 03:18:04,VALID,915.713,VALID,0,VALID,95.5443,VALID,0,VALID,21.3819,VALID,194,VALID,0,
2012-09-04, 03:19:04,VALID,915.66,VALID,0,VALID,95.4375,VALID,0,VALID,21.3624,VALID,194,VALID,0,
2012-09-04, 03:20:04,VALID,915.688,VALID,0,VALID,95.4223,VALID,0,VALID,21.3445,VALID,194,VALID,0,
2012-09-04, 03:21:04,VALID,915.67,VALID,0,VALID,95.4147,VALID,0,VALID,21.3038,VALID,194,VALID,0,
2012-09-04, 03:22:04,VALID,915.641,VALID,0,VALID,95.4452,VALID,0,VALID,21.2648,VALID,194,VALID,0,
2012-09-04, 03:23:04,VALID,915.648,VALID,0,VALID,95.4757,VALID,0,VALID,21.2063,VALID,89,VALID,0,
2012-09-04, 03:24:04,VALID,915.645,VALID,0,VALID,95.5824,VALID,0,VALID,21.1868,VALID,89,VALID,0,
2012-09-04, 03:25:04,VALID,915.617,VALID,0,VALID,95.6586,VALID,0,VALID,21.1478,VALID,89,VALID,0,
2012-09-04, 03:26:04,VALID,915.601,VALID,0,VALID,95.7349,VALID,0,VALID,21.1673,VALID,89,VALID,0,
2012-09-04, 03:27:04,VALID,915.627,VALID,0,VALID,95.7349,VALID,0,VALID,21.1689,VALID,89,VALID,0,
2012-09-04, 03:28:04,VALID,915.6,VALID,0,VALID,95.7882,VALID,0,VALID,21.1884,VALID,89,VALID,0,
2012-09-04, 03:29:04,VALID,915.612,VALID,0,VALID,95.7425,VALID,0,VALID,21.1478,VALID,89,VALID,0,
2012-09-04, 03:30:04,VALID,915.586,VALID,0,VALID,95.712,VALID,0,VALID,21.1689,VALID,89,VALID,0,
2012-09-04, 03:31:04,VALID,915.568,VALID,0,VALID,95.7577,VALID,0,VALID,21.1282,VALID,89,VALID,0,
2012-09-04, 03:32:04,VALID,915.56,VALID,0,VALID,95.7806,VALID,0,VALID,21.1282,VALID,89,VALID,0,
2012-09-04, 03:33:04,VALID,915.532,VALID,0,VALID,95.7882,VALID,0,VALID,21.1282,VALID,89,VALID,0,
2012-09-04, 03:34:04,VALID,915.494,VALID,0,VALID,95.8111,VALID,0.107441,VALID,21.1087,VALID,89,VALID,0,
2012-09-04, 03:35:04,VALID,915.509,VALID,0,VALID,95.8492,VALID,0,VALID,21.1087,VALID,89,VALID,0,
2012-09-04, 03:36:04,VALID,915.472,VALID,0,VALID,95.9254,VALID,0,VALID,21.1087,VALID,131,VALID,0,
2012-09-04, 03:37:04,VALID,915.482,VALID,0,VALID,95.9788,VALID,0,VALID,21.1282,VALID,131,VALID,0,
2012-09-04, 03:38:04,VALID,915.477,VALID,0,VALID,95.9331,VALID,0,VALID,21.1494,VALID,131,VALID,0,
2012-09-04, 03:39:04,VALID,915.464,VALID,0,VALID,95.9559,VALID,0,VALID,21.1478,VALID,131,VALID,0,
2012-09-04, 03:40:04,VALID,915.445,VALID,0,VALID,95.9864,VALID,0,VALID,21.1478,VALID,131,VALID,0,
2012-09-04, 03:41:04,VALID,915.446,VALID,0,VALID,95.9636,VALID,0,VALID,21.1689,VALID,131,VALID,0,
2012-09-04, 03:42:04,VALID,915.399,VALID,0,VALID,95.9178,VALID,0,VALID,21.1478,VALID,131,VALID,0,
2012-09-04, 03:43:04,VALID,915.376,VALID,0,VALID,95.9254,VALID,0,VALID,21.1673,VALID,131,VALID,0,
2012-09-04, 03:44:04,VALID,915.345,VALID,0,VALID,95.8645,VALID,0,VALID,21.1478,VALID,131,VALID,0,
2012-09-04, 03:45:04,VALID,915.319,VALID,0,VALID,95.895,VALID,0,VALID,21.1478,VALID,131,VALID,0,
2012-09-04, 03:46:04,VALID,915.31,VALID,0,VALID,95.895,VALID,0,VALID,21.1282,VALID,127,VALID,0,
2012-09-04, 03:47:04,VALID,915.295,VALID,0,VALID,95.9407,VALID,0,VALID,21.1282,VALID,124,VALID,0,
2012-09-04, 03:48:04,VALID,915.276,VALID,0,VALID,95.9559,VALID,0,VALID,21.1494,VALID,124,VALID,0,
2012-09-04, 03:49:04,VALID,915.287,VALID,0,VALID,95.9559,VALID,0,VALID,21.1298,VALID,124,VALID,0,
2012-09-04, 03:50:04,VALID,915.249,VALID,0,VALID,96.0169,VALID,0,VALID,21.0892,VALID,123,VALID,0,
2012-09-04, 03:51:04,VALID,915.245,VALID,0,VALID,96.0017,VALID,0,VALID,21.0892,VALID,111,VALID,0,
2012-09-04, 03:52:04,VALID,915.245,VALID,0,VALID,96.0017,VALID,0,VALID,21.0908,VALID,111,VALID,0,
2012-09-04, 03:53:04,VALID,915.224,VALID,0,VALID,96.0855,VALID,0,VALID,21.0908,VALID,111,VALID,0,
2012-09-04, 03:54:04,VALID,915.227,VALID,0,VALID,96.0779,VALID,0,VALID,21.0908,VALID,111,VALID,0,
2012-09-04, 03:55:04,VALID,915.165,VALID,0,VALID,96.0932,VALID,0,VALID,21.0697,VALID,154,VALID,0,
2012-09-04, 03:56:04,VALID,915.182,VALID,0,VALID,96.0855,VALID,0,VALID,21.0697,VALID,200,VALID,0,
2012-09-04, 03:57:04,VALID,915.216,VALID,0,VALID,96.1389,VALID,0,VALID,21.1103,VALID,200,VALID,0,
2012-09-04, 03:58:04,VALID,915.234,VALID,0,VALID,96.1236,VALID,0,VALID,21.0892,VALID,200,VALID,0,